TimeCDT,TemperatureF,Dew PointF,Humidity,Sea Level PressureIn,VisibilityMPH,Wind Direction,Wind SpeedMPH,Gust SpeedMPH,PrecipitationIn,Events,Conditions,WindDirDegrees,DateUTC
12:56 AM,69.1,64.0,84,30.00,10.0,NNE,5.8,-,N/A,,Mostly Cloudy,20,2012-09-19 05:56:00
1:56 AM,68.0,62.1,81,29.99,10.0,NNE,9.2,-,N/A,,Mostly Cloudy,20,2012-09-19 06:56:00
2:18 AM,66.2,62.6,88,30.00,10.0,North,6.9,-,N/A,,Scattered Clouds,10,2012-09-19 07:18:00
2:56 AM,66.0,62.1,87,29.99,10.0,North,6.9,-,N/A,,Partly Cloudy,350,2012-09-19 07:56:00
3:56 AM,64.0,60.1,87,29.99,10.0,North,6.9,-,N/A,,Partly Cloudy,360,2012-09-19 08:56:00
4:56 AM,63.0,60.1,90,30.01,10.0,North,8.1,-,N/A,,Partly Cloudy,350,2012-09-19 09:56:00
5:56 AM,62.1,59.0,90,30.03,10.0,North,6.9,-,N/A,,Clear,350,2012-09-19 10:56:00
6:56 AM,61.0,57.9,90,30.04,10.0,North,6.9,-,N/A,,Partly Cloudy,360,2012-09-19 11:56:00
7:56 AM,63.0,57.9,84,30.05,10.0,NNE,6.9,-,N/A,,Clear,30,2012-09-19 12:56:00
8:56 AM,68.0,59.0,73,30.06,10.0,NNE,6.9,-,N/A,,Clear,20,2012-09-19 13:56:00
9:56 AM,71.1,57.9,63,30.08,10.0,NNE,10.4,-,N/A,,Clear,30,2012-09-19 14:56:00
10:56 AM,73.9,57.9,57,30.09,10.0,North,5.8,-,N/A,,Clear,360,2012-09-19 15:56:00
11:56 AM,77.0,59.0,54,30.09,10.0,North,9.2,-,N/A,,Clear,360,2012-09-19 16:56:00
12:56 PM,75.9,57.9,54,30.08,10.0,Variable,5.8,-,N/A,,Partly Cloudy,0,2012-09-19 17:56:00
1:56 PM,80.1,57.9,47,30.05,10.0,North,5.8,-,N/A,,Partly Cloudy,10,2012-09-19 18:56:00
2:56 PM,80.1,57.9,47,30.04,10.0,Variable,3.5,-,N/A,,Partly Cloudy,0,2012-09-19 19:56:00
3:56 PM,80.1,59.0,48,30.02,10.0,NNE,5.8,-,N/A,,Partly Cloudy,30,2012-09-19 20:56:00
4:56 PM,78.1,59.0,52,30.02,10.0,North,6.9,-,N/A,,Scattered Clouds,350,2012-09-19 21:56:00
5:56 PM,77.0,57.9,52,30.01,10.0,North,8.1,-,N/A,,Scattered Clouds,350,2012-09-19 22:56:00
6:56 PM,73.0,59.0,61,30.03,10.0,North,5.8,-,N/A,,Partly Cloudy,10,2012-09-19 23:56:00
7:56 PM,70.0,60.1,71,30.05,10.0,NNE,3.5,-,N/A,,Partly Cloudy,30,2012-09-20 00:56:00
8:56 PM,64.9,61.0,87,30.06,10.0,NNW,3.5,-,N/A,,Partly Cloudy,340,2012-09-20 01:56:00
9:56 PM,64.0,57.9,80,30.08,10.0,North,4.6,-,N/A,,Clear,360,2012-09-20 02:56:00
10:56 PM,64.0,55.9,75,30.09,10.0,NNE,3.5,-,N/A,,Clear,20,2012-09-20 03:56:00
11:56 PM,62.1,55.9,80,30.08,10.0,North,3.5,-,N/A,,Clear,350,2012-09-20 04:56:00